�������l�o���
Date,Time,MP-1(��Sv/h),MP-2(��Sv/h),MP-3(��Sv/h),MP-4(��Sv/h),MP-5(��Sv/h),MP-6(��Sv/h),MP-7(��Sv/h),MP-8(��Sv/h),����,����(m/s),���J
2020/02/15,00:00,0.705,1.012,0.664,1.256,0.887,0.404,0.706,0.670,��,6.8,��
2020/02/15,00:10,0.705,1.014,0.664,1.255,0.886,0.406,0.709,0.670,��,6.5,��
2020/02/15,00:20,0.705,1.012,0.665,1.256,0.888,0.405,0.709,0.670,��,5.7,��
2020/02/15,00:30,0.704,1.012,0.663,1.259,0.886,0.404,0.708,0.669,��,5.8,��
2020/02/15,00:40,0.706,1.011,0.664,1.256,0.885,0.405,0.707,0.669,��,4.3,��
2020/02/15,00:50,0.705,1.012,0.664,1.256,0.887,0.405,0.709,0.668,��,4.7,��
2020/02/15,01:00,0.704,1.011,0.664,1.258,0.888,0.405,0.710,0.669,��,5.1,��
2020/02/15,01:10,0.705,1.014,0.663,1.257,0.888,0.404,0.708,0.670,��,5.6,��
2020/02/15,01:20,0.706,1.011,0.665,1.257,0.889,0.404,0.707,0.670,��,6.3,��
2020/02/15,01:30,0.706,1.011,0.665,1.255,0.887,0.404,0.708,0.671,���k��,5.9,��
2020/02/15,01:40,0.704,1.012,0.663,1.256,0.887,0.404,0.708,0.670,���k��,4.4,��
2020/02/15,01:50,0.704,1.013,0.663,1.257,0.887,0.405,0.709,0.668,���k��,3.4,��
2020/02/15,02:00,0.705,1.012,0.663,1.258,0.886,0.404,0.708,0.668,�k��,3.3,��
2020/02/15,02:10,0.705,1.012,0.664,1.257,0.886,0.404,0.709,0.671,�k��,2.6,��
2020/02/15,02:20,0.705,1.010,0.663,1.254,0.889,0.404,0.705,0.669,���k��,2.8,��
2020/02/15,02:30,0.704,1.014,0.664,1.257,0.886,0.405,0.707,0.669,���k��,2.3,��
2020/02/15,02:40,0.704,1.011,0.662,1.258,0.888,0.405,0.709,0.670,���k��,3.5,��
2020/02/15,02:50,0.705,1.013,0.662,1.258,0.889,0.405,0.707,0.669,��,4.3,��
2020/02/15,03:00,0.705,1.011,0.663,1.256,0.887,0.404,0.708,0.670,��,3.5,��
2020/02/15,03:10,0.704,1.010,0.665,1.254,0.888,0.404,0.705,0.669,��,3.1,��
2020/02/15,03:20,0.704,1.012,0.663,1.256,0.884,0.403,0.707,0.669,���k��,2.6,��
2020/02/15,03:30,0.704,1.009,0.664,1.255,0.887,0.404,0.708,0.669,�k��,2.2,��
2020/02/15,03:40,0.703,1.009,0.664,1.257,0.887,0.404,0.709,0.669,���k��,2.0,��
2020/02/15,03:50,0.703,1.009,0.662,1.254,0.889,0.405,0.706,0.671,��,2.8,��
2020/02/15,04:00,0.702,1.009,0.662,1.255,0.886,0.403,0.706,0.670,���k��,3.9,��
2020/02/15,04:10,0.704,1.011,0.664,1.257,0.884,0.404,0.708,0.668,���k��,4.8,��
2020/02/15,04:20,0.701,1.011,0.663,1.258,0.887,0.405,0.706,0.668,���k��,4.7,��
2020/02/15,04:30,0.704,1.010,0.662,1.258,0.886,0.405,0.707,0.669,���k��,4.6,��
2020/02/15,04:40,0.703,1.011,0.664,1.255,0.887,0.405,0.708,0.669,���k��,6.1,��
2020/02/15,04:50,0.703,1.010,0.662,1.256,0.887,0.404,0.706,0.668,��,5.9,��
2020/02/15,05:00,0.705,1.007,0.663,1.256,0.886,0.403,0.708,0.669,��,6.8,��
2020/02/15,05:10,0.703,1.011,0.663,1.255,0.886,0.404,0.709,0.669,��,7.1,��
2020/02/15,05:20,0.703,1.011,0.663,1.257,0.886,0.403,0.709,0.671,��,6.2,��
2020/02/15,05:30,0.703,1.014,0.664,1.254,0.885,0.404,0.708,0.669,��,6.1,��
2020/02/15,05:40,0.703,1.011,0.661,1.257,0.885,0.404,0.708,0.669,��,6.9,��
2020/02/15,05:50,0.704,1.011,0.663,1.257,0.885,0.403,0.706,0.669,��,6.0,��
2020/02/15,06:00,0.703,1.011,0.663,1.254,0.885,0.404,0.709,0.670,���k��,4.8,��
2020/02/15,06:10,0.704,1.010,0.664,1.253,0.885,0.405,0.707,0.668,���k��,4.2,��
2020/02/15,06:20,0.703,1.011,0.664,1.255,0.886,0.404,0.707,0.670,���k��,3.5,��
2020/02/15,06:30,0.702,1.009,0.660,1.254,0.885,0.403,0.707,0.670,���k��,3.5,��
2020/02/15,06:40,0.704,1.011,0.661,1.254,0.886,0.405,0.707,0.671,��,4.1,��
2020/02/15,06:50,0.704,1.007,0.661,1.256,0.886,0.404,0.706,0.670,��,4.4,��
2020/02/15,07:00,0.703,1.010,0.662,1.257,0.885,0.405,0.707,0.670,��,4.2,��
2020/02/15,07:10,0.702,1.010,0.661,1.254,0.886,0.404,0.707,0.671,��,4.7,��
2020/02/15,07:20,0.702,1.012,0.663,1.255,0.885,0.404,0.709,0.670,���k��,6.1,��
2020/02/15,07:30,0.704,1.011,0.662,1.256,0.885,0.403,0.707,0.669,���k��,7.7,��
2020/02/15,07:40,0.701,1.009,0.661,1.257,0.887,0.403,0.707,0.669,���k��,7.1,��
2020/02/15,07:50,0.703,1.010,0.662,1.258,0.885,0.403,0.708,0.669,���k��,6.4,��
2020/02/15,08:00,0.704,1.013,0.662,1.256,0.884,0.405,0.707,0.670,���k��,6.0,��
2020/02/15,08:10,0.704,1.012,0.662,1.255,0.886,0.404,0.708,0.671,���k��,6.3,��
2020/02/15,08:20,0.705,1.013,0.662,1.256,0.886,0.405,0.710,0.671,�k��,5.1,��
2020/02/15,08:30,0.702,1.011,0.662,1.256,0.884,0.404,0.707,0.669,�k��,5.0,��
2020/02/15,08:40,0.705,1.010,0.662,1.257,0.886,0.404,0.707,0.669,�k��,4.6,��
2020/02/15,08:50,0.704,1.009,0.663,1.256,0.888,0.404,0.708,0.670,�k��,4.5,��
2020/02/15,09:00,0.705,1.006,0.662,1.256,0.887,0.404,0.707,0.670,�k��,3.7,��
2020/02/15,09:10,0.706,1.003,0.664,1.257,0.888,0.405,0.707,0.671,�k��,3.8,��
2020/02/15,09:20,0.705,1.004,0.663,1.257,0.888,0.404,0.705,0.671,�k��,6.0,��
2020/02/15,09:30,0.705,1.002,0.663,1.260,0.889,0.405,0.706,0.671,�k��,5.5,��
2020/02/15,09:40,0.706,1.005,0.664,1.258,0.889,0.404,0.708,0.670,�k��,6.3,��
2020/02/15,09:50,0.706,1.005,0.663,1.258,0.889,0.405,0.708,0.671,�k��,5.2,��
2020/02/15,10:00,0.706,1.006,0.663,1.256,0.887,0.404,0.707,0.671,�k��,4.9,��
2020/02/15,10:10,0.706,1.007,0.664,1.257,0.887,0.406,0.706,0.673,�k��,5.4,��
2020/02/15,10:20,0.705,1.004,0.663,1.256,0.888,0.404,0.706,0.672,�k��,6.6,��
2020/02/15,10:30,0.708,1.005,0.664,1.258,0.889,0.403,0.708,0.671,�k��,5.5,��
2020/02/15,10:40,0.705,1.007,0.665,1.259,0.890,0.405,0.709,0.671,���k��,3.1,��
2020/02/15,10:50,0.704,1.006,0.664,1.260,0.889,0.402,0.708,0.669,�k��,3.6,��
2020/02/15,11:00,0.704,1.006,0.663,1.255,0.888,0.403,0.706,0.671,�k��,5.2,��
2020/02/15,11:10,0.701,1.009,0.661,1.256,0.888,0.402,0.707,0.668,�k��,6.5,��
2020/02/15,11:20,0.704,1.008,0.664,1.258,0.888,0.401,0.706,0.670,�k��,5.3,��
2020/02/15,11:30,0.703,1.005,0.663,1.260,0.887,0.402,0.708,0.667,�k��,5.0,��
2020/02/15,11:40,0.703,1.009,0.662,1.258,0.888,0.401,0.708,0.669,�k��,4.6,��
2020/02/15,11:50,0.705,1.007,0.662,1.258,0.887,0.402,0.706,0.670,���k��,3.4,��
2020/02/15,12:00,0.703,1.010,0.663,1.258,0.888,0.402,0.708,0.670,���k��,3.1,��
2020/02/15,12:10,0.705,1.009,0.662,1.261,0.887,0.402,0.708,0.671,�k��,3.4,��
2020/02/15,12:20,0.706,1.010,0.664,1.259,0.887,0.404,0.708,0.671,�k��,4.0,��
2020/02/15,12:30,0.704,1.010,0.663,1.259,0.888,0.405,0.708,0.671,���k��,3.5,��
2020/02/15,12:40,0.705,1.013,0.663,1.259,0.888,0.405,0.707,0.672,��,3.8,��
2020/02/15,12:50,0.706,1.014,0.663,1.261,0.889,0.406,0.708,0.670,�쓌,4.4,��
2020/02/15,13:00,0.708,1.011,0.662,1.259,0.886,0.405,0.706,0.670,�쓌,4.0,��
2020/02/15,13:10,0.705,1.011,0.663,1.261,0.890,0.405,0.706,0.669,�쓌,4.2,��
2020/02/15,13:20,0.707,1.010,0.663,1.260,0.888,0.406,0.708,0.669,�쓌,3.6,��
2020/02/15,13:30,0.705,1.009,0.664,1.261,0.888,0.406,0.707,0.668,��쓌,3.7,��
2020/02/15,13:40,0.705,1.014,0.664,1.258,0.886,0.406,0.706,0.670,��쓌,4.5,��
2020/02/15,13:50,0.706,1.007,0.664,1.259,0.889,0.406,0.706,0.669,�쓌,3.7,��
2020/02/15,14:00,0.706,1.010,0.664,1.258,0.889,0.404,0.707,0.669,�쓌,6.5,��
2020/02/15,14:10,0.705,1.014,0.665,1.260,0.889,0.405,0.705,0.668,�쓌,4.7,��
2020/02/15,14:20,0.703,1.013,0.665,1.260,0.888,0.404,0.706,0.667,�쓌,5.0,��
2020/02/15,14:30,0.706,1.012,0.663,1.262,0.889,0.405,0.707,0.666,�쓌,4.4,��
2020/02/15,14:40,0.704,1.012,0.664,1.260,0.889,0.405,0.707,0.670,��쓌,4.0,��
2020/02/15,14:50,0.703,1.013,0.664,1.259,0.888,0.405,0.708,0.668,�쓌,5.4,��
2020/02/15,15:00,0.705,1.010,0.665,1.257,0.888,0.406,0.707,0.670,��쓌,4.0,��
2020/02/15,15:10,0.704,1.015,0.664,1.260,0.889,0.406,0.707,0.668,��쓌,4.4,��
2020/02/15,15:20,0.704,1.015,0.665,1.258,0.889,0.406,0.707,0.668,��쓌,4.6,��
2020/02/15,15:30,0.705,1.018,0.666,1.260,0.890,0.406,0.708,0.669,�쓌,3.8,��
2020/02/15,15:40,0.708,1.015,0.665,1.261,0.888,0.405,0.708,0.669,��쓌,4.6,��
2020/02/15,15:50,0.705,1.021,0.666,1.260,0.889,0.407,0.706,0.670,�쓌,4.8,��
2020/02/15,16:00,0.705,1.020,0.665,1.260,0.893,0.406,0.706,0.670,��쓌,5.7,��
2020/02/15,16:10,0.705,1.017,0.665,1.260,0.890,0.405,0.708,0.672,��쓌,4.7,��
2020/02/15,16:20,0.706,1.020,0.666,1.258,0.891,0.406,0.707,0.672,��쓌,5.8,��
2020/02/15,16:30,0.706,1.019,0.667,1.257,0.890,0.406,0.707,0.670,��쓌,4.4,��
2020/02/15,16:40,0.709,1.017,0.665,1.260,0.892,0.407,0.708,0.671,��쓌,3.8,��
2020/02/15,16:50,0.706,1.018,0.666,1.257,0.891,0.406,0.709,0.671,��쓌,3.6,��
2020/02/15,17:00,0.707,1.018,0.666,1.261,0.894,0.407,0.708,0.671,�쓌,3.6,��
2020/02/15,17:10,0.707,1.021,0.665,1.261,0.891,0.406,0.707,0.671,�쓌,4.3,��
2020/02/15,17:20,0.706,1.019,0.664,1.257,0.891,0.406,0.709,0.671,�쓌,3.7,��
2020/02/15,17:30,0.706,1.024,0.664,1.261,0.893,0.405,0.709,0.672,���쓌,3.1,��
2020/02/15,17:40,0.707,1.021,0.666,1.258,0.894,0.406,0.707,0.672,���쓌,3.8,��
2020/02/15,17:50,0.707,1.021,0.666,1.259,0.892,0.407,0.708,0.670,���쓌,3.9,��
2020/02/15,18:00,0.708,1.021,0.666,1.259,0.893,0.406,0.707,0.670,��,3.9,��
2020/02/15,18:10,0.707,1.021,0.665,1.261,0.892,0.406,0.707,0.671,��,4.7,��
2020/02/15,18:20,0.706,1.021,0.665,1.259,0.894,0.407,0.709,0.671,���k��,4.0,��
2020/02/15,18:30,0.704,1.020,0.665,1.260,0.893,0.405,0.707,0.671,���k��,3.7,��
2020/02/15,18:40,0.707,1.021,0.665,1.259,0.890,0.406,0.707,0.668,���k��,3.4,��
2020/02/15,18:50,0.707,1.021,0.666,1.259,0.893,0.407,0.706,0.671,���k��,3.1,��
2020/02/15,19:00,0.708,1.022,0.666,1.258,0.893,0.408,0.706,0.672,���k��,3.2,��
2020/02/15,19:10,0.705,1.020,0.666,1.260,0.893,0.406,0.708,0.671,��,3.1,��
2020/02/15,19:20,0.706,1.020,0.666,1.258,0.893,0.407,0.708,0.670,��,2.9,��
2020/02/15,19:30,0.707,1.021,0.665,1.261,0.892,0.406,0.707,0.671,���k��,1.7,��
2020/02/15,19:40,0.707,1.020,0.665,1.258,0.894,0.406,0.707,0.671,�k��,1.1,��
2020/02/15,19:50,0.704,1.021,0.665,1.261,0.891,0.406,0.708,0.671,�k��,1.1,��
2020/02/15,20:00,0.707,1.020,0.667,1.260,0.893,0.408,0.708,0.670,���k��,1.1,��
2020/02/15,20:10,0.705,1.021,0.666,1.261,0.892,0.405,0.707,0.669,-,CALM,��
2020/02/15,20:20,0.705,1.019,0.667,1.259,0.892,0.405,0.707,0.672,�k�k��,0.6,��
2020/02/15,20:30,0.706,1.020,0.666,1.259,0.893,0.405,0.708,0.670,���k��,0.8,��
2020/02/15,20:40,0.708,1.020,0.664,1.259,0.891,0.405,0.707,0.671,�k��,0.6,��
2020/02/15,20:50,0.708,1.018,0.665,1.258,0.891,0.405,0.709,0.672,�k�k��,1.2,��
2020/02/15,21:00,0.706,1.019,0.666,1.260,0.893,0.405,0.706,0.671,�k,1.5,��
2020/02/15,21:10,0.705,1.016,0.664,1.257,0.893,0.404,0.707,0.669,�k�k��,1.4,��
2020/02/15,21:20,0.707,1.018,0.665,1.259,0.890,0.407,0.707,0.672,�k,2.3,��
2020/02/15,21:30,0.706,1.019,0.666,1.259,0.893,0.406,0.708,0.672,�k,2.5,��
2020/02/15,21:40,0.705,1.021,0.666,1.258,0.892,0.405,0.708,0.672,�k,3.1,��
2020/02/15,21:50,0.706,1.018,0.664,1.261,0.892,0.405,0.709,0.671,�k,2.6,��
2020/02/15,22:00,0.705,1.020,0.666,1.259,0.893,0.406,0.709,0.670,�k,2.5,��
2020/02/15,22:10,0.705,1.018,0.666,1.259,0.895,0.405,0.708,0.670,�k,2.5,��
2020/02/15,22:20,0.706,1.020,0.665,1.259,0.891,0.406,0.709,0.671,�k,2.3,��
2020/02/15,22:30,0.707,1.018,0.665,1.261,0.893,0.406,0.708,0.670,�k,2.3,��
2020/02/15,22:40,0.707,1.019,0.666,1.260,0.893,0.405,0.706,0.670,�k,2.3,��
2020/02/15,22:50,0.706,1.019,0.666,1.259,0.893,0.406,0.708,0.670,�k�k��,2.3,��
2020/02/15,23:00,0.706,1.017,0.666,1.260,0.891,0.404,0.709,0.671,�k,2.2,��
2020/02/15,23:10,0.707,1.019,0.666,1.261,0.892,0.405,0.707,0.670,�k,2.9,��
2020/02/15,23:20,0.705,1.020,0.665,1.259,0.892,0.404,0.707,0.671,�k,3.3,��
2020/02/15,23:30,0.705,1.019,0.665,1.259,0.891,0.405,0.708,0.671,�k,3.9,��
2020/02/15,23:40,0.707,1.019,0.666,1.260,0.892,0.405,0.708,0.671,�k,3.7,��
2020/02/15,23:50,0.706,1.018,0.666,1.259,0.892,0.404,0.708,0.671,�k,3.5,��
